OneWeb SL0297

operational
NORAD ID: 49086 Int'l Des: 2021-075 Owner: ONEWEBN Country: UK Constellation: oneweb
LEOCIRCULARPOLARONEWEB_TYPE

Über OneWeb SL0297

Beschreibung wird geladen...

Live-Position

3D-Globus wird geladen...

Nächste Überflüge

Höhenverlauf

Altitude vs Time

uPlot chart will show altitude changes over time

Zweizeiliger Elementsatz

1 49086U 21075M 25304.62927433 -.00006499 00000-0 -18105-1 0 9998
2 49086 87.8959 36.0981 0001491 96.8679 263.2619 13.12478951205201
Epoch: 31. Okt. 2025 • Age: 9 hours

Aktueller Status

Höhe 1216.2 km
Geschwindigkeit 7.25 km/s
Subsatellitenpunkt 24.63°N, 9.2°W
Startdatum 21. Aug. 2021
Alter 4.1 years
Typ internet

Technische Details

Klassifizierung Payload
Masse 148.00 kg
Trockenmasse 140.00 kg
Gesamtmasse 148.00 kg
Länge 1.30 m
Durchmesser 1.00 m
Spannweite 5.00 m
Form Trapezoid+2 pan
Hersteller ONEWUS
Bus-Typ ARROW
Phasenstatus In Orbit
Besitzer/Staat ONEWEBN/UK

Große Konstellationen

Loading constellations...